Starlink 30178

operational
NORAD ID: 57447 Int'l Des: 2023-105 Owner: SPXS Country: US Constellation: starlink
LEOCIRCULAR

关于 Starlink 30178

正在加载描述...

实时位置

正在加载3D地球...

即将过境

高度历史

Altitude vs Time

uPlot chart will show altitude changes over time

两行轨道根数

1 57447U 23105T 25303.13758454 .00000238 00000-0 32652-4 0 9993
2 57447 43.0026 250.9032 0001035 258.9621 101.1105 15.02535036125925
Epoch: Oct 30, 2025 • Age: 19 hours

当前状态

高度 571.7 km
速度 7.58 km/s
星下点 -43.12°S, 149.35°E
发射日期 Jul 24, 2023
运行时间 2.2 years
类型 internet

技术详情

分类 Payload
质量 730.00 kg
干质量 700.00 kg
总质量 730.00 kg
长度 0.30 m
直径 4.10 m
跨度 29.00 m
形状 Box + pan
制造商 SPXS
平台类型 Starlink V2M
阶段状态 In Orbit
所有者/国家 SPXS/US

大型星座

Loading constellations...